site,time,unit,value
Thrapston,10/11/2023 00:00:00,MW,-5.4305677
Thrapston,10/11/2023 00:05:00,MW,-5.387613
Thrapston,10/11/2023 00:10:00,MW,-5.297383999999999
Thrapston,10/11/2023 00:15:00,MW,-5.3311744999999995
Thrapston,10/11/2023 00:20:00,MW,-5.3442941
Thrapston,10/11/2023 00:25:00,MW,-5.2979848
Thrapston,10/11/2023 00:30:00,MW,-5.3700194
Thrapston,10/11/2023 00:35:00,MW,-5.4392171000000005
Thrapston,10/11/2023 00:40:00,MW,-5.4202414
Thrapston,10/11/2023 00:45:00,MW,-5.4921162
Thrapston,10/11/2023 00:50:00,MW,-5.4599703
Thrapston,10/11/2023 00:55:00,MW,-5.4832511
Thrapston,10/11/2023 01:00:00,MW,-5.5016155
Thrapston,10/11/2023 01:05:00,MW,-5.4792235
Thrapston,10/11/2023 01:10:00,MW,-5.5372374
Thrapston,10/11/2023 01:15:00,MW,-5.5296261
Thrapston,10/11/2023 01:20:00,MW,-5.5356462
Thrapston,10/11/2023 01:25:00,MW,-5.4865067
Thrapston,10/11/2023 01:30:00,MW,-5.2970602
Thrapston,10/11/2023 01:35:00,MW,-5.2984775
Thrapston,10/11/2023 01:40:00,MW,-5.4566313
Thrapston,10/11/2023 01:45:00,MW,-5.2877173
Thrapston,10/11/2023 01:50:00,MW,-5.2819382
Thrapston,10/11/2023 01:55:00,MW,-5.2550378
Thrapston,10/11/2023 02:00:00,MW,-5.1966238
Thrapston,10/11/2023 02:05:00,MW,-5.1536655
Thrapston,10/11/2023 02:10:00,MW,-5.0921457
Thrapston,10/11/2023 02:15:00,MW,-5.0662682
Thrapston,10/11/2023 02:20:00,MW,-5.1283554
Thrapston,10/11/2023 02:25:00,MW,-5.3147981
Thrapston,10/11/2023 02:30:00,MW,-5.3500497
Thrapston,10/11/2023 02:35:00,MW,-5.3198819
Thrapston,10/11/2023 02:40:00,MW,-5.258354000000001
Thrapston,10/11/2023 02:45:00,MW,-5.262695300000001
Thrapston,10/11/2023 02:50:00,MW,-5.159304199999999
Thrapston,10/11/2023 02:55:00,MW,-5.1992294999999995
Thrapston,10/11/2023 03:00:00,MW,-5.2389958
Thrapston,10/11/2023 03:05:00,MW,-5.2573967
Thrapston,10/11/2023 03:10:00,MW,-5.1979332
Thrapston,10/11/2023 03:15:00,MW,-5.193918
Thrapston,10/11/2023 03:20:00,MW,-5.0996707
Thrapston,10/11/2023 03:25:00,MW,-5.024238
Thrapston,10/11/2023 03:30:00,MW,-5.0105147
Thrapston,10/11/2023 03:35:00,MW,-5.074837499999999
Thrapston,10/11/2023 03:40:00,MW,-4.9757874
Thrapston,10/11/2023 03:45:00,MW,-5.151888
Thrapston,10/11/2023 03:50:00,MW,-5.1939347
Thrapston,10/11/2023 03:55:00,MW,-5.028241700000001
Thrapston,10/11/2023 04:00:00,MW,-5.1871619
Thrapston,10/11/2023 04:05:00,MW,-5.177449299999999
Thrapston,10/11/2023 04:10:00,MW,-5.1775489
Thrapston,10/11/2023 04:15:00,MW,-5.0746363
Thrapston,10/11/2023 04:20:00,MW,-5.1737821
Thrapston,10/11/2023 04:25:00,MW,-5.122800099999999
Thrapston,10/11/2023 04:30:00,MW,-4.994772
Thrapston,10/11/2023 04:35:00,MW,-5.071025199999999
Thrapston,10/11/2023 04:40:00,MW,-5.0875995
Thrapston,10/11/2023 04:45:00,MW,-5.1776364
Thrapston,10/11/2023 04:50:00,MW,-5.0859154
Thrapston,10/11/2023 04:55:00,MW,-5.1591997
Thrapston,10/11/2023 05:00:00,MW,-5.1493783
Thrapston,10/11/2023 05:05:00,MW,-5.215312
Thrapston,10/11/2023 05:10:00,MW,-5.243242
Thrapston,10/11/2023 05:15:00,MW,-5.2225141
Thrapston,10/11/2023 05:20:00,MW,-5.195405
Thrapston,10/11/2023 05:25:00,MW,-5.1270205
Thrapston,10/11/2023 05:30:00,MW,-5.2525675
Thrapston,10/11/2023 05:35:00,MW,-5.2334003
Thrapston,10/11/2023 05:40:00,MW,-5.2603367
Thrapston,10/11/2023 05:45:00,MW,-5.2228674999999996
Thrapston,10/11/2023 05:50:00,MW,-5.293331500000001
Thrapston,10/11/2023 05:55:00,MW,-5.3705131999999995
Thrapston,10/11/2023 06:00:00,MW,-5.4912168
Thrapston,10/11/2023 06:05:00,MW,-5.616158
Thrapston,10/11/2023 06:10:00,MW,-5.644714499999999
Thrapston,10/11/2023 06:15:00,MW,-5.785432800000001
Thrapston,10/11/2023 06:20:00,MW,-5.9426761
Thrapston,10/11/2023 06:25:00,MW,-6.1013782
Thrapston,10/11/2023 06:30:00,MW,-6.1017314
Thrapston,10/11/2023 06:35:00,MW,-6.0630857
Thrapston,10/11/2023 06:40:00,MW,-6.243267100000001
Thrapston,10/11/2023 06:45:00,MW,-6.563950800000001
Thrapston,10/11/2023 06:50:00,MW,-6.6950073
Thrapston,10/11/2023 06:55:00,MW,-6.9330162
Thrapston,10/11/2023 07:00:00,MW,-6.9030062
Thrapston,10/11/2023 07:05:00,MW,-6.9915565
Thrapston,10/11/2023 07:10:00,MW,-7.052156200000001
Thrapston,10/11/2023 07:15:00,MW,-7.1902495
Thrapston,10/11/2023 07:20:00,MW,-7.1398747
Thrapston,10/11/2023 07:25:00,MW,-7.175912
Thrapston,10/11/2023 07:30:00,MW,-7.2586788
Thrapston,10/11/2023 07:35:00,MW,-7.1968345
Thrapston,10/11/2023 07:40:00,MW,-6.9512443
Thrapston,10/11/2023 07:45:00,MW,-7.1442342
Thrapston,10/11/2023 07:50:00,MW,-7.083461
Thrapston,10/11/2023 07:55:00,MW,-6.9545278
Thrapston,10/11/2023 08:00:00,MW,-7.05917
Thrapston,10/11/2023 08:05:00,MW,-7.1305135
Thrapston,10/11/2023 08:10:00,MW,-7.1001303
Thrapston,10/11/2023 08:15:00,MW,-7.2150757
Thrapston,10/11/2023 08:20:00,MW,-7.309663499999999
Thrapston,10/11/2023 08:25:00,MW,-7.2972951
Thrapston,10/11/2023 08:30:00,MW,-7.0262103
Thrapston,10/11/2023 08:35:00,MW,-6.9147411000000005
Thrapston,10/11/2023 08:40:00,MW,-6.7283835
Thrapston,10/11/2023 08:45:00,MW,-6.6689856
Thrapston,10/11/2023 08:50:00,MW,-6.8484011
Thrapston,10/11/2023 08:55:00,MW,-6.8811951
Thrapston,10/11/2023 09:00:00,MW,-6.9302871
Thrapston,10/11/2023 09:05:00,MW,-6.9261277
Thrapston,10/11/2023 09:10:00,MW,-6.8163509
Thrapston,10/11/2023 09:15:00,MW,-6.6633718
Thrapston,10/11/2023 09:20:00,MW,-6.778393100000001
Thrapston,10/11/2023 09:25:00,MW,-6.7584195000000005
Thrapston,10/11/2023 09:30:00,MW,-6.7006508
Thrapston,10/11/2023 09:35:00,MW,-6.600243799999999
Thrapston,10/11/2023 09:40:00,MW,-6.7599454
Thrapston,10/11/2023 09:45:00,MW,-6.656588
Thrapston,10/11/2023 09:50:00,MW,-6.8447221
Thrapston,10/11/2023 09:55:00,MW,-6.9139804
Thrapston,10/11/2023 10:00:00,MW,-6.8269496
Thrapston,10/11/2023 10:05:00,MW,-6.5305745
Thrapston,10/11/2023 10:10:00,MW,-6.6997833
Thrapston,10/11/2023 10:15:00,MW,-6.467973499999999
Thrapston,10/11/2023 10:20:00,MW,-6.3136542
Thrapston,10/11/2023 10:25:00,MW,-6.4081077
Thrapston,10/11/2023 10:30:00,MW,-6.292078
Thrapston,10/11/2023 10:35:00,MW,-6.1828363
Thrapston,10/11/2023 10:40:00,MW,-5.8466432
Thrapston,10/11/2023 10:45:00,MW,-5.3199107
Thrapston,10/11/2023 10:50:00,MW,-5.5413888
Thrapston,10/11/2023 10:55:00,MW,-5.3874524
Thrapston,10/11/2023 11:00:00,MW,-5.481178
Thrapston,10/11/2023 11:05:00,MW,-5.5637802999999995
Thrapston,10/11/2023 11:10:00,MW,-5.2615888
Thrapston,10/11/2023 11:15:00,MW,-5.2709752000000005
Thrapston,10/11/2023 11:20:00,MW,-4.0065112
Thrapston,10/11/2023 11:25:00,MW,-3.9382089000000002
Thrapston,10/11/2023 11:30:00,MW,-4.9390371
Thrapston,10/11/2023 11:35:00,MW,-5.8832477999999995
Thrapston,10/11/2023 11:40:00,MW,-6.1006822
Thrapston,10/11/2023 11:45:00,MW,-6.081208200000001
Thrapston,10/11/2023 11:50:00,MW,-5.8350697
Thrapston,10/11/2023 11:55:00,MW,-6.2741106
Thrapston,10/11/2023 12:00:00,MW,-6.081204700000001
Thrapston,10/11/2023 12:05:00,MW,-6.1186767
Thrapston,10/11/2023 12:10:00,MW,-6.213505700000001
Thrapston,10/11/2023 12:15:00,MW,-5.9854216000000005
Thrapston,10/11/2023 12:20:00,MW,-5.8892299999999995
Thrapston,10/11/2023 12:25:00,MW,-6.485719700000001
Thrapston,10/11/2023 12:30:00,MW,-6.6454041
Thrapston,10/11/2023 12:35:00,MW,-6.841203
Thrapston,10/11/2023 12:40:00,MW,-7.006728000000001
Thrapston,10/11/2023 12:45:00,MW,-7.0979554
Thrapston,10/11/2023 12:50:00,MW,-7.0823512
Thrapston,10/11/2023 12:55:00,MW,-6.8953081
Thrapston,10/11/2023 13:00:00,MW,-6.5275435
Thrapston,10/11/2023 13:05:00,MW,-6.541672
Thrapston,10/11/2023 13:10:00,MW,-6.5429993
Thrapston,10/11/2023 13:15:00,MW,-6.4486663
Thrapston,10/11/2023 13:20:00,MW,-6.382387
Thrapston,10/11/2023 13:25:00,MW,-6.5653153
Thrapston,10/11/2023 13:30:00,MW,-6.816324
Thrapston,10/11/2023 13:35:00,MW,-6.9835881
Thrapston,10/11/2023 13:40:00,MW,-7.0135226
Thrapston,10/11/2023 13:45:00,MW,-6.8906417
Thrapston,10/11/2023 13:50:00,MW,-6.6585707
Thrapston,10/11/2023 13:55:00,MW,-6.539490799999999
Thrapston,10/11/2023 14:00:00,MW,-6.3887394
Thrapston,10/11/2023 14:05:00,MW,-6.5140572
Thrapston,10/11/2023 14:10:00,MW,-6.5551908
Thrapston,10/11/2023 14:15:00,MW,-6.642116700000001
Thrapston,10/11/2023 14:20:00,MW,-6.695752000000001
Thrapston,10/11/2023 14:25:00,MW,-6.4050589
Thrapston,10/11/2023 14:30:00,MW,-6.1526795
Thrapston,10/11/2023 14:35:00,MW,-6.5516693
Thrapston,10/11/2023 14:40:00,MW,-6.6298163
Thrapston,10/11/2023 14:45:00,MW,-6.2446141
Thrapston,10/11/2023 14:50:00,MW,-6.3750573
Thrapston,10/11/2023 14:55:00,MW,-6.5374284
Thrapston,10/11/2023 15:00:00,MW,-6.6596244
Thrapston,10/11/2023 15:05:00,MW,-6.6558674
Thrapston,10/11/2023 15:10:00,MW,-6.7194485
Thrapston,10/11/2023 15:15:00,MW,-6.6070948000000005
Thrapston,10/11/2023 15:20:00,MW,-6.7155488
Thrapston,10/11/2023 15:25:00,MW,-6.848368600000001
Thrapston,10/11/2023 15:30:00,MW,-6.6954791
Thrapston,10/11/2023 15:35:00,MW,-6.883372
Thrapston,10/11/2023 15:40:00,MW,-6.9821508
Thrapston,10/11/2023 15:45:00,MW,-7.0948777
Thrapston,10/11/2023 15:50:00,MW,-7.075706
Thrapston,10/11/2023 15:55:00,MW,-7.3229758
Thrapston,10/11/2023 16:00:00,MW,-7.3328568999999995
Thrapston,10/11/2023 16:05:00,MW,-7.462334800000001
Thrapston,10/11/2023 16:10:00,MW,-7.4040175
Thrapston,10/11/2023 16:15:00,MW,-7.2605573
Thrapston,10/11/2023 16:20:00,MW,-7.5123953
Thrapston,10/11/2023 16:25:00,MW,-7.4631682
Thrapston,10/11/2023 16:30:00,MW,-7.1815733999999996
Thrapston,10/11/2023 16:35:00,MW,-7.1743442
Thrapston,10/11/2023 16:40:00,MW,-7.1793254
Thrapston,10/11/2023 16:45:00,MW,-7.2320228
Thrapston,10/11/2023 16:50:00,MW,-7.3626235
Thrapston,10/11/2023 16:55:00,MW,-7.6241653
Thrapston,10/11/2023 17:00:00,MW,-7.6123626
Thrapston,10/11/2023 17:05:00,MW,-7.8204377
Thrapston,10/11/2023 17:10:00,MW,-7.8242923
Thrapston,10/11/2023 17:15:00,MW,-7.8536553
Thrapston,10/11/2023 17:20:00,MW,-8.273187199999999
Thrapston,10/11/2023 17:25:00,MW,-8.3657942
Thrapston,10/11/2023 17:30:00,MW,-8.3017819
Thrapston,10/11/2023 17:35:00,MW,-8.2466369
Thrapston,10/11/2023 17:40:00,MW,-8.1275721
Thrapston,10/11/2023 17:45:00,MW,-8.1149634
Thrapston,10/11/2023 17:50:00,MW,-7.9890682
Thrapston,10/11/2023 17:55:00,MW,-8.0568647
Thrapston,10/11/2023 18:00:00,MW,-8.098503000000001
Thrapston,10/11/2023 18:05:00,MW,-8.2604933
Thrapston,10/11/2023 18:10:00,MW,-8.3005906
Thrapston,10/11/2023 18:15:00,MW,-8.2807081
Thrapston,10/11/2023 18:20:00,MW,-8.1908381
Thrapston,10/11/2023 18:25:00,MW,-8.2430898
Thrapston,10/11/2023 18:30:00,MW,-8.2950061
Thrapston,10/11/2023 18:35:00,MW,-8.3074656
Thrapston,10/11/2023 18:40:00,MW,-8.391911
Thrapston,10/11/2023 18:45:00,MW,-8.416277000000001
Thrapston,10/11/2023 18:50:00,MW,-8.6216986
Thrapston,10/11/2023 18:55:00,MW,-8.567121
Thrapston,10/11/2023 19:00:00,MW,-8.425616300000002
Thrapston,10/11/2023 19:05:00,MW,-8.3577595
Thrapston,10/11/2023 19:10:00,MW,-8.4850082
Thrapston,10/11/2023 19:15:00,MW,-8.344002
Thrapston,10/11/2023 19:20:00,MW,-8.290261600000001
Thrapston,10/11/2023 19:25:00,MW,-8.40033
Thrapston,10/11/2023 19:30:00,MW,-8.130972
Thrapston,10/11/2023 19:35:00,MW,-7.9076872
Thrapston,10/11/2023 19:40:00,MW,-7.5000727
Thrapston,10/11/2023 19:45:00,MW,-7.5720838
Thrapston,10/11/2023 19:50:00,MW,-7.8385412
Thrapston,10/11/2023 19:55:00,MW,-7.627985499999999
Thrapston,10/11/2023 20:00:00,MW,-7.7049992
Thrapston,10/11/2023 20:05:00,MW,-7.6550294
Thrapston,10/11/2023 20:10:00,MW,-7.6154496
Thrapston,10/11/2023 20:15:00,MW,-7.6783476
Thrapston,10/11/2023 20:20:00,MW,-7.6382598
Thrapston,10/11/2023 20:25:00,MW,-7.6000856
Thrapston,10/11/2023 20:30:00,MW,-7.5393827
Thrapston,10/11/2023 20:35:00,MW,-7.436878
Thrapston,10/11/2023 20:40:00,MW,-7.2951836
Thrapston,10/11/2023 20:45:00,MW,-7.3590285
Thrapston,10/11/2023 20:50:00,MW,-7.340246199999999
Thrapston,10/11/2023 20:55:00,MW,-7.4391275
Thrapston,10/11/2023 21:00:00,MW,-7.4596367
Thrapston,10/11/2023 21:05:00,MW,-7.5532008
Thrapston,10/11/2023 21:10:00,MW,-7.4987521
Thrapston,10/11/2023 21:15:00,MW,-7.3143718
Thrapston,10/11/2023 21:20:00,MW,-7.1817944
Thrapston,10/11/2023 21:25:00,MW,-7.0689554
Thrapston,10/11/2023 21:30:00,MW,-6.8761703999999995
Thrapston,10/11/2023 21:35:00,MW,-6.7601415
Thrapston,10/11/2023 21:40:00,MW,-6.6756189
Thrapston,10/11/2023 21:45:00,MW,-6.6148175
Thrapston,10/11/2023 21:50:00,MW,-6.5588315999999995
Thrapston,10/11/2023 21:55:00,MW,-6.3411103
Thrapston,10/11/2023 22:00:00,MW,-6.299432299999999
Thrapston,10/11/2023 22:05:00,MW,-6.4177316
Thrapston,10/11/2023 22:10:00,MW,-6.4943618999999995
Thrapston,10/11/2023 22:15:00,MW,-6.3739462
Thrapston,10/11/2023 22:20:00,MW,-6.356605
Thrapston,10/11/2023 22:25:00,MW,-6.3796599
Thrapston,10/11/2023 22:30:00,MW,-6.4101026999999995
Thrapston,10/11/2023 22:35:00,MW,-6.287599200000001
Thrapston,10/11/2023 22:40:00,MW,-6.1770928000000005
Thrapston,10/11/2023 22:45:00,MW,-6.227061
Thrapston,10/11/2023 22:50:00,MW,-6.0619245
Thrapston,10/11/2023 22:55:00,MW,-6.025141
Thrapston,10/11/2023 23:00:00,MW,-6.1194501
Thrapston,10/11/2023 23:05:00,MW,-6.2002032
Thrapston,10/11/2023 23:10:00,MW,-6.156137
Thrapston,10/11/2023 23:15:00,MW,-6.015139
Thrapston,10/11/2023 23:20:00,MW,-5.8722775
Thrapston,10/11/2023 23:25:00,MW,-5.8053944
Thrapston,10/11/2023 23:30:00,MW,-5.6549285000000005
Thrapston,10/11/2023 23:35:00,MW,-5.6600463
Thrapston,10/11/2023 23:40:00,MW,-5.7184306
Thrapston,10/11/2023 23:45:00,MW,-5.582265400000001
Thrapston,10/11/2023 23:50:00,MW,-5.4671705
Thrapston,10/11/2023 23:55:00,MW,-5.2984466999999995
